GW1080 Weather Reports


time (UTC)temp
F
wind
direction
speed
knots
gust
knots
rain 1hr
in
rain 24hr
in
rain mn
in
humidity
%
barometer
mb
20260510065600 52 49 0.0 1.7 0.00 0.48 0.01 93 1009.8
20260510065100 52 0 0.9 1.7 0.00 0.48 0.01 93 1009.8
20260510064606 52 33 0.0 0.9 0.00 0.48 0.01 93 1009.9
20260510064059 52 0 0.0 0.9 0.00 0.48 0.01 93 1009.8
20260510063559 52 23 0.0 0.9 0.00 0.48 0.01 93 1009.8
20260510063058 52 3 0.0 0.9 0.00 0.48 0.01 94 1009.7
20260510062600 52 0 0.0 0.0 0.00 0.48 0.01 93 1009.7
20260510062059 52 0 0.0 0.0 0.00 0.48 0.01 93 1009.7
20260510061601 53 0 0.0 0.0 0.00 0.48 0.01 94 1009.7
20260510061100 53 0 0.0 0.0 0.00 0.48 0.01 94 1009.6
20260510060600 53 0 0.0 0.0 0.00 0.48 0.01 94 1009.6
20260510060059 53 0 0.0 0.0 0.00 0.48 0.01 94 1009.6
20260510055602 53 0 0.0 0.0 0.00 0.57 0.01 94 1009.6
20260510055100 53 0 0.0 0.9 0.00 0.57 0.01 94 1009.6
20260510054600 53 0 0.0 0.9 0.00 0.57 0.01 94 1009.6
20260510054100 53 50 0.0 0.9 0.00 0.57 0.01 94 1009.4
20260510053600 53 0 0.0 1.7 0.00 0.57 0.01 94 1009.7
20260510053059 53 0 0.0 1.7 0.00 0.57 0.01 94 1009.7
20260510052603 53 8 0.0 2.6 0.00 0.57 0.01 94 1009.6
20260510052100 53 41 0.9 2.6 0.00 0.57 0.01 94 1009.5
20260510051606 52 34 0.0 1.7 0.00 0.57 0.01 94 1009.4
20260510051100 52 0 0.0 0.0 0.00 0.57 0.01 93 1008.6
20260510050600 52 0 0.0 0.0 0.00 0.57 0.01 93 1008.3
20260510045600 53 0 0.0 0.0 0.01 0.62 0.01 93 1008.0
20260510045100 53 0 0.0 0.0 0.01 0.62 0.01 93 1008.0
20260510044617 53 0 0.0 0.0 0.01 0.62 0.01 93 1007.9
20260510044100 53 0 0.0 0.0 0.01 0.62 0.01 93 1007.9
20260510043619 53 0 0.0 0.0 0.01 0.62 0.01 93 1007.9
20260510043059 53 0 0.0 0.0 0.01 0.62 0.01 93 1007.9
20260510042600 53 0 0.0 0.0 0.01 0.62 0.01 93 1007.7
20260510042100 54 0 0.0 0.9 0.01 0.62 0.01 93 1007.7
20260510041559 54 0 0.0 0.9 0.01 0.62 0.01 93 1007.7
20260510041101 54 0 0.0 1.7 0.01 0.62 0.01 93 1007.8
20260510040603 54 188 0.0 1.7 0.01 0.62 0.01 93 1007.9
20260510040101 54 284 0.9 1.7 0.00 0.61 0.00 93 1008.1
20260510035601 54 269 0.0 1.7 0.00 0.65 0.61 94 1008.1
20260510035100 54 0 0.9 2.6 0.00 0.65 0.61 94 1008.1
20260510034558 54 223 0.9 2.6 0.01 0.65 0.61 94 1007.7
20260510034101 53 126 0.0 1.7 0.02 0.65 0.61 94 1007.9
20260510033602 53 271 0.0 0.9 0.03 0.65 0.61 94 1008.4
20260510033109 53 210 0.0 0.9 0.04 0.65 0.61 94 1008.1
20260510032600 53 0 0.0 0.9 0.04 0.65 0.61 94 1008.0
20260510032100 53 0 0.0 0.0 0.04 0.65 0.61 94 1008.0
20260510031558 53 210 0.0 0.0 0.04 0.65 0.61 94 1007.9
20260510031100 53 0 0.0 0.0 0.04 0.65 0.61 94 1007.8
20260510030600 53 0 0.0 0.9 0.04 0.65 0.61 94 1007.6
20260510030106 53 0 0.0 0.9 0.04 0.65 0.61 94 1007.6
20260510025601 54 0 0.0 2.6 0.04 0.66 0.61 94 1007.9
20260510025059 54 133 0.0 3.5 0.04 0.66 0.61 94 1007.9
20260510024603 54 237 0.9 3.5 0.03 0.65 0.60 94 1008.9
20260510024101 53 236 0.9 3.5 0.02 0.64 0.58 94 1009.1
20260510023600 53 266 0.9 3.5 0.01 0.63 0.58 94 1008.5
20260510023111 53 262 0.0 0.0 0.00 0.62 0.57 94 1008.1
20260510022601 53 0 0.0 2.6 0.00 0.62 0.57 94 1007.8
20260510022101 53 0 0.0 2.6 0.00 0.62 0.57 94 1007.7
20260510021605 53 0 0.0 2.6 0.00 0.62 0.57 94 1007.7
20260510021100 53 129 0.0 0.9 0.00 0.62 0.57 94 1007.8
20260510020600 53 0 0.0 0.9 0.00 0.62 0.57 94 1007.9
20260510020100 53 0 0.0 0.9 0.00 0.62 0.57 94 1007.6
20260510015600 53 0 0.0 0.9 0.00 0.64 0.57 93 1007.5
20260510015100 53 0 0.0 0.9 0.00 0.64 0.57 93 1007.5
20260510014603 53 0 0.0 0.9 0.00 0.64 0.57 93 1007.5
20260510014101 53 0 0.0 0.0 0.00 0.64 0.57 93 1007.5
20260510013601 53 0 0.0 0.0 0.00 0.64 0.57 93 1007.5
20260510013115 53 0 0.0 0.0 0.00 0.64 0.57 93 1007.5
20260510012601 53 0 0.0 0.0 0.00 0.64 0.57 93 1007.5
20260510012103 53 0 0.0 0.0 0.00 0.64 0.57 93 1007.4
20260510011601 54 0 0.0 0.0 0.00 0.64 0.57 92 1007.3
20260510011100 54 0 0.0 0.0 0.00 0.64 0.57 92 1007.3
20260510010600 54 0 0.0 0.0 0.00 0.64 0.57 92 1007.1
20260510010104 54 0 0.0 0.0 0.00 0.64 0.57 92 1007.1
20260510005600 54 0 0.0 0.0 0.00 0.71 0.57 92 1007.0
20260510005100 54 0 0.0 0.0 0.00 0.71 0.57 92 1007.0
20260510004600 54 0 0.0 0.0 0.01 0.71 0.57 92 1007.0
20260510004100 54 0 0.0 0.0 0.02 0.71 0.57 92 1007.0
20260510003601 54 0 0.0 0.0 0.05 0.71 0.57 92 1007.0
20260510003102 54 0 0.0 0.0 0.06 0.71 0.57 92 1007.1
20260510002600 54 0 0.0 0.0 0.08 0.71 0.57 92 1007.0
20260510002100 55 0 0.0 0.0 0.11 0.71 0.57 92 1007.0
20260510001558 55 0 0.0 0.0 0.25 0.71 0.57 92 1007.0
20260510001101 55 0 0.0 0.0 0.30 0.71 0.57 92 1006.9
20260510000601 55 0 0.0 0.9 0.30 0.71 0.57 92 1007.0
20260510000104 55 0 0.0 0.9 0.30 0.71 0.57 91 1007.2
20260509235600 55 0 0.0 0.9 0.30 0.80 0.57 91 1007.2
20260509235100 55 0 0.0 0.9 0.30 0.80 0.57 91 1006.8
20260509234600 55 0 0.0 1.7 0.29 0.79 0.56 91 1006.9
20260509234100 55 0 0.0 1.7 0.28 0.78 0.55 91 1007.2
20260509233601 55 256 0.0 0.9 0.25 0.75 0.52 90 1007.3
20260509233059 55 0 0.0 2.6 0.24 0.74 0.51 90 1007.3
20260509232603 55 5 0.9 5.2 0.22 0.72 0.49 89 1007.4
20260509232101 56 94 0.9 11.3 0.19 0.69 0.46 87 1006.9
20260509231604 57 54 3.5 11.3 0.05 0.55 0.32 84 1006.7
20260509231101 60 11 2.6 6.1 0.00 0.50 0.27 77 1006.6
20260509230600 64 50 3.5 5.2 0.00 0.50 0.27 65 1006.4
20260509230100 66 333 0.9 1.7 0.00 0.50 0.27 61 1005.4
20260509225600 66 268 0.0 1.7 0.00 0.66 0.27 58 1004.4
20260509225100 67 260 0.0 2.6 0.00 0.66 0.27 59 1004.5
20260509224602 67 257 0.9 4.3 0.00 0.66 0.27 57 1004.4
20260509224100 67 255 0.9 4.3 0.00 0.66 0.27 56 1004.4
20260509223601 67 245 0.9 3.5 0.00 0.66 0.27 56 1004.3
20260509223100 67 227 0.9 3.5 0.00 0.66 0.27 55 1004.6
20260509222600 68 245 1.7 3.5 0.00 0.66 0.27 55 1004.6
20260509222101 68 236 1.7 3.5 0.00 0.66 0.27 54 1004.6
20260509221603 68 246 0.9 3.5 0.00 0.66 0.27 55 1004.5
20260509221101 68 0 1.7 3.5 0.00 0.66 0.27 54 1004.3
20260509220600 68 147 1.7 3.5 0.00 0.66 0.27 54 1004.3
20260509215600 69 207 0.9 4.3 0.00 0.69 0.27 55 1004.3
20260509215102 69 269 2.6 4.3 0.00 0.69 0.27 53 1004.3
20260509214608 69 238 1.7 5.2 0.00 0.69 0.27 53 1004.4
20260509214101 69 252 2.6 5.2 0.00 0.69 0.27 55 1004.3
20260509213600 69 253 1.7 4.3 0.00 0.69 0.27 55 1004.2
20260509212601 69 231 1.7 3.5 0.00 0.69 0.27 54 1004.3
20260509212101 69 271 0.9 3.5 0.00 0.69 0.27 55 1004.3
20260509211602 69 245 1.7 4.3 0.00 0.69 0.27 54 1004.5
20260509211101 68 250 1.7 4.3 0.00 0.69 0.27 56 1004.6
20260509210601 68 266 1.7 4.3 0.00 0.69 0.27 56 1004.7
20260509210106 69 251 1.7 4.3 0.00 0.69 0.27 55 1004.8
20260509205604 68 255 1.7 3.5 0.00 0.69 0.27 57 1004.8
20260509205101 68 249 1.7 3.5 0.00 0.69 0.27 57 1004.9
20260509204558 68 266 1.7 4.3 0.00 0.69 0.27 57 1004.9
20260509204100 68 244 1.7 5.2 0.00 0.69 0.27 59 1005.0
20260509203600 68 129 1.7 5.2 0.00 0.69 0.27 58 1005.1
20260509203100 68 239 1.7 4.3 0.00 0.69 0.27 57 1005.0
20260509202600 68 249 1.7 3.5 0.00 0.69 0.27 57 1005.2
20260509202100 68 212 0.9 3.5 0.00 0.69 0.27 59 1005.1
20260509201559 68 210 0.9 4.3 0.00 0.69 0.27 58 1005.3
20260509201101 68 254 2.6 4.3 0.00 0.69 0.27 58 1005.2
20260509200602 68 260 1.7 4.3 0.00 0.69 0.27 60 1005.3
20260509200104 67 273 1.7 5.2 0.00 0.69 0.27 60 1005.2
20260509195600 67 233 1.7 5.2 0.00 0.69 0.27 59 1005.4
20260509195101 67 210 1.7 4.3 0.00 0.69 0.27 57 1005.6
20260509194559 67 185 0.9 3.5 0.00 0.69 0.27 59 1005.7
20260509194101 67 208 1.7 3.5 0.00 0.69 0.27 61 1005.7
20260509193601 66 237 0.9 4.3 0.00 0.69 0.27 61 1005.8
20260509193101 66 254 0.9 4.3 0.00 0.69 0.27 61 1006.0
20260509192600 66 216 0.9 4.3 0.00 0.69 0.27 62 1005.9
20260509192100 66 252 1.7 3.5 0.00 0.69 0.27 61 1006.2
20260509191558 66 249 0.9 1.7 0.00 0.69 0.27 64 1006.4
20260509191101 66 240 0.0 3.5 0.00 0.69 0.27 63 1006.3
20260509190600 66 251 1.7 3.5 0.00 0.69 0.27 64 1006.5
20260509190100 65 232 1.7 3.5 0.00 0.69 0.27 63 1006.3
20260509185600 65 264 0.9 3.5 0.00 0.69 0.27 64 1006.3
20260509185101 65 264 0.9 3.5 0.00 0.69 0.27 63 1006.5
20260509184600 65 204 0.9 4.3 0.00 0.69 0.27 63 1006.5
20260509184100 65 269 1.7 4.3 0.00 0.69 0.27 64 1006.5
20260509183601 65 222 0.9 2.6 0.00 0.69 0.27 65 1006.4
20260509183105 65 270 1.7 2.6 0.00 0.69 0.27 63 1006.4
20260509182604 65 240 0.9 3.5 0.00 0.69 0.27 64 1006.4
20260509182100 65 234 1.7 3.5 0.00 0.69 0.27 66 1006.4
20260509181603 65 243 1.7 3.5 0.00 0.69 0.27 64 1006.3
20260509181101 65 231 1.7 3.5 0.00 0.69 0.27 63 1006.5
20260509180601 64 254 1.7 3.5 0.00 0.69 0.27 67 1006.7
20260509175600 64 260 0.9 3.5 0.00 0.69 0.27 65 1006.7
20260509175100 64 238 0.9 4.3 0.00 0.69 0.27 66 1006.6
20260509174558 64 281 1.7 4.3 0.00 0.69 0.27 68 1006.7
20260509174100 64 248 0.9 3.5 0.00 0.69 0.27 67 1006.7
20260509173600 64 0 0.9 3.5 0.00 0.69 0.27 66 1006.7
20260509172600 63 223 0.9 4.3 0.00 0.69 0.27 68 1006.8
20260509172101 63 245 1.7 4.3 0.00 0.69 0.27 69 1006.7
20260509171601 63 252 0.0 2.6 0.00 0.69 0.27 69 1006.6
20260509171100 63 268 0.9 2.6 0.00 0.69 0.27 71 1006.6
20260509170600 63 262 0.9 2.6 0.00 0.69 0.27 69 1006.5
20260509165600 62 248 0.9 2.6 0.00 0.69 0.27 71 1006.6
20260509165100 61 245 0.0 2.6 0.00 0.69 0.27 74 1006.7
20260509164606 61 248 0.9 2.6 0.00 0.69 0.27 73 1006.8
20260509164104 61 252 0.0 2.6 0.00 0.69 0.27 72 1007.0
20260509163600 61 224 0.9 2.6 0.00 0.69 0.27 74 1007.0
20260509163058 61 265 0.9 2.6 0.00 0.69 0.27 73 1007.0
20260509162600 61 259 0.9 2.6 0.00 0.69 0.27 74 1007.1
20260509162101 61 249 0.0 1.7 0.00 0.69 0.27 77 1007.2
20260509161605 60 241 0.0 1.7 0.00 0.69 0.27 78 1007.1
20260509161101 60 0 0.0 1.7 0.00 0.69 0.27 81 1007.2
20260509160605 59 270 0.0 2.6 0.00 0.69 0.27 81 1007.2
20260509160101 59 0 0.0 2.6 0.00 0.69 0.27 81 1007.3
20260509155603 59 278 0.0 2.6 0.00 0.69 0.27 83 1007.3
20260509155100 58 232 0.0 2.6 0.00 0.69 0.27 84 1007.3
20260509154610 58 247 0.9 2.6 0.00 0.69 0.27 84 1007.3
20260509154103 57 262 0.0 1.7 0.00 0.69 0.27 84 1007.2
20260509153601 57 243 0.0 1.7 0.00 0.69 0.27 84 1007.2
20260509153105 58 278 0.0 2.6 0.00 0.69 0.27 86 1007.2
20260509152602 57 252 0.9 2.6 0.00 0.69 0.27 86 1007.1
20260509152101 57 244 0.0 1.7 0.00 0.69 0.27 88 1007.2
20260509151600 56 0 0.0 1.7 0.00 0.69 0.27 88 1007.3
20260509151100 56 257 0.0 0.9 0.00 0.69 0.27 90 1007.1
20260509150600 56 0 0.0 0.9 0.00 0.69 0.27 90 1007.2
20260509145600 55 0 0.0 0.9 0.00 0.69 0.27 91 1007.4
20260509145101 55 0 0.0 0.9 0.00 0.69 0.27 91 1007.4
20260509144601 55 265 0.0 0.9 0.00 0.69 0.27 93 1007.5
20260509144100 55 254 0.0 0.9 0.00 0.69 0.27 93 1007.4
20260509143600 54 0 0.0 0.9 0.00 0.69 0.27 93 1007.3
20260509143101 54 0 0.0 0.9 0.00 0.69 0.27 93 1007.3
20260509142600 54 0 0.0 0.9 0.00 0.69 0.27 93 1007.4
20260509142100 54 0 0.0 0.9 0.00 0.69 0.27 94 1007.4
20260509141559 54 253 0.0 1.7 0.00 0.69 0.27 94 1007.3
20260509141101 54 0 0.0 1.7 0.00 0.69 0.27 94 1007.4
20260509140600 54 262 0.0 0.9 0.00 0.69 0.27 95 1007.4
20260509140105 54 243 0.0 0.9 0.00 0.69 0.27 95 1007.3
20260509135600 54 242 0.0 0.9 0.00 0.70 0.27 95 1007.3
20260509135059 53 240 0.0 0.9 0.00 0.70 0.27 95 1007.4
20260509134614 53 255 0.0 1.7 0.00 0.70 0.27 95 1007.3
20260509134100 53 255 0.0 1.7 0.00 0.70 0.27 95 1007.4
20260509133600 53 0 0.0 0.9 0.00 0.70 0.27 95 1007.3
20260509133104 53 176 0.0 0.9 0.00 0.70 0.27 95 1007.4
20260509132603 53 0 0.0 0.0 0.00 0.70 0.27 96 1007.4
20260509132100 53 0 0.0 0.0 0.00 0.70 0.27 96 1007.4
20260509131602 53 0 0.0 0.0 0.00 0.70 0.27 95 1007.4
20260509131100 53 0 0.0 0.0 0.00 0.70 0.27 96 1007.3
20260509130600 52 0 0.0 0.9 0.00 0.70 0.27 96 1007.4
20260509130101 52 0 0.0 0.9 0.00 0.70 0.27 96 1007.5
20260509125601 52 0 0.0 0.0 0.00 0.72 0.27 96 1007.4
20260509125058 52 0 0.0 0.0 0.00 0.72 0.27 96 1007.5
20260509124617 52 0 0.0 0.9 0.00 0.72 0.27 96 1007.5
20260509124100 52 0 0.0 0.9 0.00 0.72 0.27 96 1007.6
20260509123600 52 0 0.0 0.9 0.00 0.72 0.27 96 1007.7
20260509123100 52 0 0.0 0.9 0.00 0.72 0.27 96 1007.7
20260509122601 52 0 0.0 0.9 0.00 0.72 0.27 96 1007.7
20260509122059 52 241 0.0 0.9 0.00 0.72 0.27 96 1007.8
20260509121612 52 0 0.0 0.0 0.00 0.72 0.27 96 1007.6
20260509121101 52 0 0.0 0.0 0.00 0.72 0.27 96 1007.6
20260509120601 52 0 0.0 0.0 0.00 0.72 0.27 96 1007.7
20260509120113 52 0 0.0 0.0 0.00 0.72 0.27 96 1007.7
20260509115600 51 0 0.0 0.0 0.00 0.72 0.27 96 1007.7
20260509115100 51 0 0.0 0.0 0.00 0.72 0.27 96 1007.8
20260509114600 51 0 0.0 0.0 0.00 0.72 0.27 96 1007.7
20260509114100 51 0 0.0 0.0 0.00 0.72 0.27 96 1007.7
20260509113600 51 0 0.0 0.0 0.00 0.72 0.27 96 1007.7
20260509113059 51 0 0.0 0.0 0.00 0.72 0.27 96 1007.8
20260509112600 51 0 0.0 0.0 0.00 0.72 0.27 96 1007.8
20260509112100 51 0 0.0 0.0 0.00 0.72 0.27 95 1007.7
20260509111559 51 0 0.0 0.0 0.00 0.72 0.27 95 1007.8
20260509111100 51 0 0.0 0.0 0.00 0.72 0.27 95 1007.6
20260509110601 51 0 0.0 0.0 0.00 0.72 0.27 96 1007.6
20260509105600 51 0 0.0 0.0 0.00 0.72 0.27 95 1007.5
20260509105100 51 0 0.0 0.0 0.00 0.72 0.27 95 1007.5
20260509104559 51 0 0.0 0.0 0.00 0.72 0.27 95 1007.4
20260509104059 51 0 0.0 0.0 0.00 0.72 0.27 95 1007.4
20260509103559 51 0 0.0 0.0 0.00 0.72 0.27 95 1007.4
20260509103104 51 0 0.0 0.0 0.00 0.72 0.27 95 1007.5
20260509102600 51 0 0.0 0.0 0.00 0.72 0.27 95 1007.5
20260509102101 51 0 0.0 0.0 0.00 0.72 0.27 95 1007.5
20260509101603 51 0 0.0 0.0 0.00 0.72 0.27 95 1007.5
20260509101100 51 0 0.0 0.0 0.00 0.72 0.27 95 1007.5
20260509100600 51 0 0.0 0.0 0.00 0.72 0.27 95 1007.6
20260509100101 51 0 0.0 0.0 0.00 0.72 0.27 95 1007.6
20260509095601 51 0 0.0 0.0 0.00 0.72 0.27 95 1007.6
20260509095103 51 0 0.0 0.0 0.00 0.72 0.27 95 1007.6
20260509094601 51 0 0.0 0.0 0.00 0.72 0.27 95 1007.6
20260509094100 51 0 0.0 0.0 0.00 0.72 0.27 95 1007.6
20260509093559 51 0 0.0 0.0 0.00 0.72 0.27 95 1007.6
20260509093100 51 0 0.0 0.0 0.00 0.72 0.27 95 1007.7
20260509092559 51 0 0.0 0.0 0.00 0.72 0.27 95 1007.7
20260509092100 51 0 0.0 0.0 0.00 0.72 0.27 95 1007.8
20260509091635 51 0 0.0 0.0 0.00 0.72 0.27 95 1007.8
20260509091059 51 0 0.0 0.0 0.00 0.72 0.27 95 1007.9
20260509090600 51 0 0.0 0.0 0.00 0.72 0.27 95 1007.8
20260509090059 51 0 0.0 0.0 0.00 0.72 0.27 95 1007.9
20260509085602 51 0 0.0 0.0 0.00 0.72 0.27 95 1007.9
20260509085100 51 0 0.0 0.0 0.00 0.72 0.27 95 1008.0
20260509084601 51 0 0.0 0.0 0.00 0.72 0.27 95 1008.0
20260509084100 51 0 0.0 0.0 0.00 0.72 0.27 95 1008.0
20260509083559 51 0 0.0 0.9 0.00 0.72 0.27 95 1008.1
20260509083058 51 242 0.0 0.9 0.01 0.72 0.27 95 1008.0
20260509082559 51 0 0.0 0.9 0.01 0.72 0.27 95 1008.1
20260509082102 51 242 0.0 0.9 0.01 0.72 0.27 95 1008.1
20260509081559 50 242 0.0 0.9 0.01 0.72 0.27 95 1008.1
20260509081059 50 0 0.0 0.9 0.02 0.72 0.27 95 1008.1
20260509080602 50 0 0.0 0.9 0.03 0.72 0.27 95 1008.1
20260509080108 50 0 0.0 0.0 0.04 0.72 0.27 95 1008.0
20260509075603 50 0 0.0 0.0 0.06 0.72 0.27 95 1008.1
20260509075101 50 0 0.0 0.0 0.07 0.72 0.27 95 1008.0
20260509074601 50 0 0.0 0.0 0.08 0.72 0.27 95 1008.0
20260509074100 50 0 0.0 0.0 0.08 0.72 0.27 95 1008.1
20260509073600 50 0 0.0 0.0 0.07 0.71 0.26 95 1008.1
20260509073138 50 0 0.0 0.0 0.08 0.71 0.26 95 1008.1
20260509072600 50 0 0.0 0.0 0.08 0.71 0.26 95 1008.2
20260509072059 50 0 0.0 0.0 0.09 0.71 0.26 95 1008.3
20260509071559 50 0 0.0 0.0 0.10 0.71 0.26 95 1008.3
20260509071100 50 0 0.0 0.0 0.09 0.70 0.25 95 1008.3
20260509070602 50 0 0.0 0.9 0.09 0.69 0.24 95 1008.4